Volver al catálogo

STARLINK-31731

ActivoComunicacionesVLEO
NORAD 59498·PAYLOAD·🇺🇸 United States

Lanzado Apr 13, 2024 desde Cape Canaveral Space Force Station

Loading…

Próximos Pases (próximas 24 horas)

TLE

ActualizadoSource: CelesTrak SupGP

Época: Sep 15, 2026, 02:57 UTC

1 59498C 24071Q   26258.12340278  .00040205  00000+0  14564-2 0  2589
2 59498  43.0013 349.5944 0001433 266.4827 352.8997 15.27553317    15

Sigue STARLINK-31731 en tiempo real con AllMySat

Download on the App Store